EHI
4 2 0 0 0 1 1 1 1 1 2 2 1 1 2 2 1 0 0 0 0 0 0 0 0 0 0 0 0 0 0 0 0 0 0 0 0 0
3 2 0 0 0 0 0 0 0 0 1 1 0 0 1 1 0 0 0 0 0 0 0 0 0 0 0 0 0 0 0 0 0 0 0 0 0 0
1 1 0 0 0 0 0 0 0 0 0 0 0 0 0 0 0 0 0 0 0 0 0 0 0 0 0 0 0 0 0 0 0 0 0 0 0 0
0 0 0 0 0 0 0 0 0 0 0 0 0 0 0 0 0 0 0 0 0 0 0 0 0 0 0 0 0 0 0 0 0 0 0 0 0 0
0 0 0 0 0 0 0 0 0 0 0 0 0 0 0 0 0 0 0 0 0 0 0 0 0 0 0 0 0 0 0 0 0 0 0 0 0 0
0 0 0 0 0 0 0 0 0 0 0 0 0 0 0 0 0 0 0 1 0 0 0 0 0 0 0 0 0 0 0 0 0 0 0 0 0 0
0 0 0 0 0 0 0 0 0 0 0 0 0 0 0 0 0 0 1 2 1 1 1 1 1 1 1 0 0 0 0 0 0 0 0 0 0 0
0 0 0 0 0 0 0 0 0 0 0 0 0 0 0 0 0 0 0 1 1 2 2 2 2 2 2 1 0 0 0 0 0 0 0 0 0 0
0 0 0 0 0 0 0 0 0 0 0 0 0 0 0 0 0 0 0 0 1 2 2 2 2 2 2 1 0 0 0 0 0 0 0 0 0 0
0 0 0 0 0 0 0 0 0 0 0 0 0 0 0 0 0 0 0 0 1 1 1 1 1 1 1 0 0 0 0 0 0 0 0 0 0 0
0 0 0 0 0 0 0 0 0 0 0 0 0 0 0 0 0 0 0 0 0 0 0 0 0 0 0 0 0 0 0 0 0 0 0 0 0 0
0 0 0 0 0 0 0 0 0 0 0 0 0 0 0 0 0 0 0 0 0 0 0 0 0 0 0 0 0 0 0 0 0 0 0 0 0 0
0 0 0 0 0 0 0 0 0 0 0 0 0 0 0 0 0 0 0 0 0 0 0 0 0 0 0 0 0 0 0 0 0 0 0 0 0 0
0 0 0 0 0 0 0 0 0 0 0 0 0 0 0 0 0 0 0 0 0 0 0 0 0 0 0 0 0 0 0 0 0 0 0 0 0 0
0 0 0 0 0 0 0 0 0 0 0 0 0 0 0 0 0 0 0 0 0 0 0 0 0 0 0 0 0 1 1 1 0 0 0 0 0 1
0 0 0 0 0 0 0 0 0 0 0 0 0 0 0 0 0 0 0 0 0 0 0 0 0 0 0 0 0 1 2 2 1 0 0 0 0 1
0 0 0 0 0 0 0 0 0 0 0 0 0 0 0 0 0 0 0 0 0 0 0 0 0 0 0 0 0 1 1 1 1 0 1 0 0 1
0 0 0 0 0 0 0 0 0 0 0 0 0 0 0 0 0 0 0 0 0 0 0 0 0 0 0 0 0 0 0 0 0 0 0 0 0 0
0 0 0 0 0 0 0 0 0 0 0 0 0 0 0 0 0 0 0 0 0 0 0 0 0 0 0 0 0 0 0 0 0 0 0 0 0 0
0 0 0 0 0 0 0 0 0 0 0 0 0 0 0 0 0 0 0 0 0 0 0 0 0 0 0 0 0 0 0 0 0 0 0 0 0 0
0 0 0 0 0 0 0 0 0 0 0 0 0 0 0 0 0 0 0 0 0 0 0 0 0 0 0 0 0 0 0 0 0 0 0 0 0 0
0 0 0 0 0 0 0 0 0 0 0 0 0 0 0 0 0 0 0 0 0 0 0 0 0 0 0 0 0 0 0 0 0 0 0 0 0 0
0 0 0 0 0 0 0 0 0 0 0 0 0 0 0 0 0 0 0 0 0 0 0 0 0 0 0 0 0 0 0 0 0 0 0 0 0 0
Wind_Speed
5 5 5 5 5 5 5 5 6 7 6 4 4 4 4 4 3 5 6 5 7 9 9 10 10 11 11 12 12 12 12 12 13 14 15 16 16 16
4 4 5 5 4 5 5 5 5 6 7 5 4 4 4 5 4 6 7 5 8 8 9 9 10 11 11 12 12 13 13 12 13 14 15 16 16 16
5 5 5 5 4 4 4 4 5 5 6 6 5 4 5 6 5 6 6 7 6 9 9 9 10 10 12 12 12 13 13 13 13 13 15 15 15 15
6 5 5 4 4 5 4 5 4 5 6 7 5 5 5 6 6 6 6 6 6 6 9 9 10 10 11 11 12 12 12 13 13 13 13 14 14 14
5 5 5 5 5 4 5 5 4 4 5 6 6 5 5 5 6 6 7 5 7 5 8 9 10 10 10 10 11 11 11 12 12 13 13 14 14 14
5 4 4 4 4 4 4 5 5 6 5 5 6 5 4 5 5 5 5 4 5 5 5 5 7 9 10 10 10 10 10 10 11 12 13 13 13 13
4 4 3 3 3 4 5 5 5 5 5 5 5 5 5 4 5 5 6 5 5 5 4 4 4 6 7 9 11 10 10 10 10 10 11 12 12 13
4 4 3 2 2 4 4 6 6 6 7 6 6 6 7 6 6 6 6 5 5 4 4 5 5 4 4 5 5 9 10 10 10 10 10 10 11 11
4 3 3 2 3 4 4 6 6 7 8 8 8 8 8 7 7 8 6 6 6 4 4 5 5 5 4 3 4 7 8 9 9 9 9 10 10 11
3 3 4 4 4 5 6 5 5 4 5 6 6 7 7 7 7 7 7 7 7 5 4 5 4 4 4 3 5 7 8 9 9 9 9 10 10 11
3 3 3 4 4 5 6 6 6 6 4 5 6 7 8 8 7 6 6 5 5 4 3 4 5 4 4 4 4 8 8 9 9 9 9 9 10 9
2 1 2 4 4 4 5 6 7 7 7 5 5 6 7 7 8 7 6 5 5 5 3 4 5 5 5 4 4 4 6 8 9 9 10 10 10 8
4 3 3 3 4 5 6 5 6 8 7 6 5 5 5 4 4 4 5 5 5 5 4 4 5 5 5 5 4 4 4 4 6 7 9 10 10 9
5 5 4 5 6 6 4 4 7 7 5 5 5 4 5 5 5 5 5 5 6 7 7 6 6 5 6 6 5 4 4 4 4 4 5 8 10 11
4 4 5 7 7 4 3 5 6 4 5 5 5 5 5 5 5 5 5 5 6 7 6 7 6 6 6 6 6 5 5 5 5 4 4 5 5 6
4 3 5 7 5 4 3 3 3 4 5 5 5 5 5 5 5 5 5 4 5 5 4 5 6 7 6 6 6 6 6 5 5 5 5 5 6 6
7 5 4 4 4 4 4 4 4 4 4 4 5 5 5 6 5 5 5 5 5 5 5 4 4 5 6 6 6 6 6 6 5 5 5 6 5 5
6 4 5 5 5 5 5 5 4 5 5 5 4 5 5 6 6 6 5 5 5 5 5 5 5 4 5 4 5 6 6 5 5 5 6 6 5 4
4 4 5 5 6 6 6 6 6 5 5 5 5 5 5 5 5 6 6 6 6 6 6 5 5 5 5 6 4 4 5 5 4 5 5 5 5 4
4 5 5 5 6 6 6 6 6 5 5 5 5 5 5 5 6 6 6 7 7 7 6 5 5 5 6 6 6 5 5 5 4 5 5 5 4 3
4 4 5 5 6 6 6 6 6 5 5 5 5 5 5 6 6 6 6 6 7 6 6 6 5 6 6 5 5 4 3 3 3 4 5 5 4 4
5 5 5 5 5 5 6 6 5 5 5 5 5 5 6 6 6 7 7 6 6 6 7 6 6 5 5 5 5 4 4 2 1 2 3 4 4 3
5 5 5 5 5 5 6 7 7 5 5 5 6 6 6 6 6 6 7 7 6 7 7 6 5 5 5 5 5 4 5 4 2 2 1 2 3 3
Wind_Direction
273 272 275 274 270 272 273 275 278 283 282 273 273 277 274 266 239 252 255 217 221 236 245 247 247 245 243 242 238 234 233 234 234 232 230 229 230 229
280 283 280 280 281 276 276 273 268 277 286 297 287 286 290 283 242 257 258 224 223 232 243 247 247 244 241 240 238 233 230 230 232 231 227 227 229 229
285 282 278 282 285 283 278 274 270 271 278 289 294 295 286 284 282 270 260 252 235 212 231 243 246 247 245 238 234 232 229 228 230 231 227 225 225 226
288 285 285 283 281 282 281 280 281 279 277 285 292 293 289 286 287 278 269 260 264 213 213 231 241 245 243 237 233 229 228 227 227 227 226 226 226 225
283 281 282 285 285 289 284 285 286 284 284 281 284 290 288 290 287 274 270 270 271 248 215 219 231 240 241 236 232 227 225 223 223 223 224 224 224 224
282 281 282 283 287 291 284 289 293 291 287 282 287 291 287 288 284 282 279 265 270 273 262 240 225 227 234 231 229 224 220 219 221 223 222 222 221 221
303 299 298 304 313 297 303 306 301 297 297 294 291 294 296 297 293 287 282 279 270 270 272 262 242 239 230 225 226 221 215 214 217 219 219 219 220 219
303 305 303 280 263 248 270 284 292 295 304 301 296 296 296 296 295 289 289 285 281 279 276 272 265 259 255 247 204 196 205 211 214 216 218 217 216 216
303 305 305 331 318 309 275 248 255 257 265 281 291 293 298 305 304 297 293 289 283 284 278 274 269 264 257 250 179 186 199 207 212 217 218 217 216 215
306 311 316 322 336 321 302 298 295 284 269 268 282 287 293 299 292 285 286 280 270 262 266 274 271 268 268 260 190 192 199 205 210 214 216 217 217 217
316 329 331 325 357 322 298 300 303 301 268 255 267 274 281 277 276 284 282 276 282 280 263 271 274 274 273 262 215 191 200 206 210 211 211 212 212 214
315 318 32 347 342 321 304 308 310 314 315 305 275 260 263 258 241 254 278 285 290 291 291 280 277 274 270 259 251 226 215 208 208 210 209 207 205 216
332 340 22 18 331 312 295 307 307 304 306 305 301 298 294 288 276 265 274 280 288 291 303 298 288 281 275 274 266 254 245 232 217 214 210 208 206 217
334 344 3 343 314 301 295 307 295 289 297 307 311 313 312 312 312 303 290 282 277 279 287 288 283 284 280 274 273 265 255 251 245 241 231 199 204 214
331 340 315 300 289 271 244 267 277 294 312 315 319 320 316 315 306 295 288 280 275 272 270 267 269 273 274 274 274 271 268 257 248 248 247 234 218 210
315 295 256 260 271 295 291 282 303 325 320 321 321 320 317 314 307 307 302 300 295 289 284 277 269 271 270 270 271 270 266 264 253 247 249 247 239 227
325 316 327 337 338 342 340 337 331 333 329 330 325 325 325 320 315 315 310 305 302 303 302 292 276 265 264 270 265 262 263 264 260 254 249 250 247 240
312 331 340 339 342 345 344 347 348 346 336 328 328 329 327 324 324 323 318 314 310 310 310 308 296 285 275 264 259 268 268 264 263 254 251 252 252 245
311 340 338 340 343 344 345 346 347 349 339 335 338 335 332 326 324 325 325 323 318 316 313 312 308 300 290 288 274 252 274 276 273 266 256 253 254 248
344 341 338 344 344 343 343 342 344 346 342 340 342 337 332 328 325 325 326 330 323 318 315 314 317 317 307 302 303 296 257 268 269 268 268 262 254 228
348 342 344 347 345 344 340 339 343 346 346 338 339 335 331 327 325 324 325 326 314 314 316 316 322 305 293 285 286 292 287 229 258 272 276 269 261 244
347 343 345 344 339 338 336 339 341 342 340 340 339 333 329 326 325 323 324 322 320 320 320 319 317 306 305 306 304 301 303 301 211 231 263 277 286 287
343 336 336 337 338 336 340 341 341 342 343 340 334 329 328 326 323 323 323 322 322 322 319 315 312 312 315 312 309 309 312 310 290 258 245 204 217 242